CW7200 Weather Reports


Display with metric or nautical units.
time (UTC)temp
F
wind
direction
speed
MPH
gust
MPH
rain 1hr
in
rain 24hr
in
rain mn
in
humidity
%
barometer
mb
20181119180535 33 108 0.0 1.0 0.00 0.05 0.05 90 1014.3
20181119175635 33 117 0.0 4.0 0.00 0.05 0.05 90 1014.6
20181119174735 33 119 0.0 3.0 0.00 0.05 0.05 90 1014.3
20181119173834 33 113 1.0 4.0 0.00 0.05 0.05 90 1014.5
20181119172935 33 121 0.0 6.0 0.00 0.05 0.05 90 1014.4
20181119172035 33 132 0.0 4.0 0.00 0.05 0.05 90 1014.3
20181119171135 33 136 0.0 2.0 0.00 0.05 0.05 90 1014.0
20181119170235 33 116 0.0 3.0 0.00 0.05 0.05 90 1014.1
20181119165334 33 130 0.0 3.0 0.00 0.05 0.05 90 1014.2
20181119164435 33 153 0.0 2.0 0.00 0.05 0.05 90 1014.2
20181119163535 33 117 0.0 3.0 0.00 0.05 0.05 90 1014.4
20181119162635 33 130 0.0 2.0 0.00 0.05 0.05 90 1014.3
20181119161735 33 117 0.0 3.0 0.00 0.05 0.05 90 1014.3
20181119160834 33 123 0.0 3.0 0.00 0.04 0.04 90 1014.1
20181119155935 33 135 0.0 4.0 0.00 0.04 0.04 90 1014.0
20181119155035 33 137 0.0 4.0 0.00 0.04 0.04 90 1013.9
20181119154135 33 120 0.0 5.0 0.00 0.04 0.04 90 1013.8
20181119153235 33 113 0.0 2.0 0.00 0.04 0.04 90 1013.7
20181119152335 33 128 0.0 4.0 0.00 0.04 0.04 90 1013.7
20181119151434 33 106 0.0 3.0 0.00 0.04 0.04 90 1013.6
20181119150534 33 120 0.0 2.0 0.00 0.04 0.04 90 1013.7
20181119145635 33 110 0.0 4.0 0.00 0.04 0.04 90 1013.7
20181119144734 33 99 0.0 4.0 0.00 0.04 0.04 90 1013.7
20181119143835 33 0 0.0 0.0 0.00 0.04 0.04 90 1013.8
20181119142935 33 0 0.0 0.0 0.00 0.03 0.03 90 1013.9
20181119142034 33 158 0.0 0.0 0.00 0.03 0.03 90 1013.9
20181119141135 33 158 0.0 0.0 0.00 0.03 0.03 90 1013.9
20181119140235 33 159 0.0 1.0 0.01 0.03 0.03 90 1013.8
20181119135335 33 0 0.0 0.0 0.01 0.03 0.03 90 1013.8
20181119134434 33 0 0.0 0.0 0.01 0.03 0.03 90 1013.8
20181119133534 33 165 0.0 0.0 0.00 0.03 0.03 90 1013.7
20181119132635 33 163 0.0 2.0 0.01 0.03 0.03 90 1013.7
20181119131734 33 0 0.0 0.0 0.01 0.03 0.03 90 1013.7
20181119130835 33 154 0.0 0.0 0.01 0.03 0.03 90 1013.7
20181119125934 33 147 0.0 2.0 0.01 0.02 0.02 90 1013.6
20181119125035 33 147 0.0 1.0 0.01 0.02 0.02 91 1013.5
20181119124134 33 0 0.0 0.0 0.01 0.02 0.02 90 1013.6
20181119123234 33 0 0.0 0.0 0.01 0.02 0.02 90 1013.6
20181119122335 33 0 0.0 0.0 0.00 0.01 0.01 90 1013.6
20181119121435 33 0 0.0 0.0 0.01 0.01 0.01 91 1013.5
20181119120535 33 0 0.0 0.0 0.01 0.01 0.01 91 1013.5
20181119115634 32 147 0.0 2.0 0.00 0.00 0.00 91 1013.6
20181119114735 32 144 0.0 0.0 0.00 0.00 0.00 91 1013.5
20181119113835 32 164 0.0 1.0 0.00 0.00 0.00 90 1013.5
20181119112935 32 161 0.0 0.0 0.00 0.00 0.00 90 1013.5
20181119112034 32 149 0.0 2.0 0.00 0.00 0.00 90 1013.4
20181119111135 32 157 0.0 1.0 0.00 0.00 0.00 90 1013.4
20181119110235 32 157 0.0 1.0 0.00 0.00 0.00 90 1013.4
20181119105334 32 0 0.0 0.0 0.00 0.00 0.00 91 1013.6
20181119104435 32 158 0.0 1.0 0.00 0.00 0.00 91 1013.5
20181119103534 32 151 0.0 1.0 0.00 0.00 0.00 91 1013.6
20181119102634 32 156 0.0 0.0 0.00 0.00 0.00 91 1013.6
20181119101735 32 174 0.0 0.0 0.00 0.00 0.00 90 1013.5
20181119100835 32 174 0.0 1.0 0.00 0.00 0.00 90 1013.5
20181119095934 32 0 0.0 0.0 0.00 0.00 0.00 91 1013.4
20181119095034 32 0 0.0 0.0 0.00 0.00 0.00 91 1013.6
20181119094134 32 0 0.0 0.0 0.00 0.00 0.00 91 1013.5
20181119093235 32 0 0.0 0.0 0.00 0.00 0.00 90 1013.5
20181119092334 32 0 0.0 0.0 0.00 0.00 0.00 90 1013.6
20181119091435 32 0 0.0 0.0 0.00 0.00 0.00 91 1013.4
20181119090534 32 0 0.0 0.0 0.00 0.00 0.00 91 1013.3
20181119085634 32 174 0.0 1.0 0.00 0.00 0.00 90 1013.3
20181119084734 32 0 0.0 0.0 0.00 0.00 0.00 90 1013.3
20181119083835 32 0 0.0 0.0 0.00 0.00 0.00 91 1013.3
20181119082935 32 0 0.0 0.0 0.00 0.00 0.00 91 1013.3
20181119082034 32 0 0.0 0.0 0.00 0.00 0.00 90 1013.2
20181119081135 32 0 0.0 0.0 0.00 0.00 0.00 90 1013.2
20181119080235 32 0 0.0 0.0 0.00 0.00 0.00 90 1013.2
20181119075335 32 0 0.0 0.0 0.00 0.00 0.00 90 1013.1
20181119074434 32 0 0.0 0.0 0.00 0.00 0.00 90 1013.2
20181119073535 32 0 0.0 0.0 0.00 0.00 0.00 90 1013.3
20181119072635 32 0 0.0 0.0 0.00 0.00 0.00 90 1013.2
20181119071734 32 0 0.0 0.0 0.00 0.00 0.00 90 1013.3
20181119070835 32 167 0.0 2.0 0.00 0.00 0.00 90 1013.3
20181119065934 32 0 0.0 0.0 0.00 0.00 0.00 90 1013.3
20181119065034 32 130 0.0 2.0 0.00 0.00 0.00 90 1013.3
20181119064135 32 170 0.0 0.0 0.00 0.00 0.00 90 1013.2
20181119063234 32 0 0.0 0.0 0.00 0.00 0.00 90 1013.2
20181119062335 32 0 0.0 0.0 0.00 0.00 0.00 90 1013.0
20181119061435 32 0 0.0 0.0 0.00 0.00 0.00 90 1013.0
20181119060535 32 0 0.0 0.0 0.00 0.00 0.00 90 1012.9
20181119055635 32 0 0.0 0.0 0.00 0.00 0.00 90 1012.9
20181119054734 32 170 0.0 2.0 0.00 0.00 0.00 90 1012.9
20181119053835 32 170 0.0 2.0 0.00 0.00 0.00 90 1012.9
20181119052935 32 0 0.0 0.0 0.00 0.00 0.00 90 1012.6
20181119052035 32 0 0.0 0.0 0.00 0.00 0.00 90 1012.7
20181119051135 32 0 0.0 0.0 0.00 0.00 0.00 90 1012.6
20181119050234 32 0 0.0 0.0 0.00 0.00 0.00 90 1012.6
20181119045334 32 158 0.0 2.0 0.00 0.00 0.00 90 1012.6
20181119044435 32 0 0.0 0.0 0.00 0.00 0.00 90 1012.6
20181119043534 32 0 0.0 0.0 0.00 0.00 0.00 89 1012.6
20181119042635 32 0 0.0 0.0 0.00 0.00 0.00 89 1012.6
20181119041735 32 0 0.0 0.0 0.00 0.00 0.00 89 1012.5
20181119040835 32 0 0.0 0.0 0.00 0.00 0.00 89 1012.6
20181119035934 32 0 0.0 0.0 0.00 0.00 0.00 89 1012.6
20181119035034 32 0 0.0 0.0 0.00 0.00 0.00 89 1012.6
20181119034135 32 158 0.0 0.0 0.00 0.00 0.00 89 1012.6
20181119033234 32 0 0.0 0.0 0.00 0.00 0.00 89 1012.6
20181119032335 32 0 0.0 0.0 0.00 0.00 0.00 89 1012.7
20181119031435 32 0 0.0 0.0 0.00 0.00 0.00 89 1012.7
20181119030535 32 0 0.0 0.0 0.00 0.00 0.00 89 1012.8
20181119025634 32 158 0.0 0.0 0.00 0.00 0.00 89 1012.9
20181119024735 32 158 0.0 1.0 0.00 0.00 0.00 89 1012.9
20181119023834 32 158 0.0 1.0 0.00 0.00 0.00 89 1013.0
20181119022935 32 0 0.0 0.0 0.00 0.00 0.00 89 1013.1
20181119022035 32 0 0.0 0.0 0.00 0.00 0.00 89 1013.1
20181119021134 32 0 0.0 0.0 0.00 0.00 0.00 89 1013.2
20181119020235 32 0 0.0 0.0 0.00 0.00 0.00 89 1013.3
20181119015335 32 0 0.0 0.0 0.00 0.00 0.00 88 1013.3
20181119014435 32 158 0.0 0.0 0.00 0.00 0.00 88 1013.5
20181119013534 32 0 0.0 0.0 0.00 0.00 0.00 88 1013.5
20181119012634 32 0 0.0 0.0 0.00 0.00 0.00 88 1013.6
20181119011735 32 0 0.0 0.0 0.00 0.00 0.00 87 1013.6
20181119010834 33 0 0.0 0.0 0.00 0.00 0.00 87 1013.7
20181119005935 33 98 0.0 4.0 0.00 0.00 0.00 86 1013.7
20181119005034 33 123 0.0 1.0 0.00 0.00 0.00 86 1013.9
20181119004134 33 111 0.0 6.0 0.00 0.00 0.00 85 1013.9
20181119003235 33 0 0.0 0.0 0.00 0.00 0.00 85 1014.0
20181119002335 33 0 0.0 0.0 0.00 0.00 0.00 85 1013.9
20181119001435 33 121 1.0 3.0 0.00 0.00 0.00 85 1014.2
20181119000535 33 114 1.0 6.0 0.00 0.00 0.00 84 1014.3
20181118235634 33 120 1.0 5.0 0.00 0.00 0.00 84 1014.4
20181118234734 33 115 0.0 4.0 0.00 0.00 0.00 84 1014.4
20181118233835 33 119 0.0 5.0 0.00 0.00 0.00 84 1014.6
20181118232935 33 117 0.0 4.0 0.00 0.00 0.00 84 1014.7
20181118232034 34 113 0.0 3.0 0.00 0.00 0.00 84 1014.9
20181118231134 34 0 0.0 0.0 0.00 0.00 0.00 84 1015.0
20181118230235 34 124 0.0 2.0 0.00 0.00 0.00 84 1015.0
20181118225334 34 116 1.0 4.0 0.00 0.00 0.00 83 1015.2
20181118224435 34 122 1.0 5.0 0.00 0.00 0.00 84 1015.2
20181118223535 34 118 1.0 4.0 0.00 0.00 0.00 84 1015.2
20181118222634 34 126 1.0 4.0 0.00 0.00 0.00 84 1015.3
20181118221734 34 112 1.0 4.0 0.00 0.00 0.00 85 1015.3
20181118220834 34 118 0.0 4.0 0.00 0.00 0.00 85 1015.4
20181118215934 34 0 0.0 0.0 0.00 0.00 0.00 86 1015.4
20181118215035 34 0 0.0 0.0 0.00 0.00 0.00 86 1015.5
20181118214134 34 0 0.0 0.0 0.00 0.00 0.00 86 1015.6
20181118213235 34 0 0.0 0.0 0.00 0.00 0.00 86 1015.7
20181118212335 34 0 0.0 0.0 0.00 0.00 0.00 85 1015.7
20181118211434 34 0 0.0 0.0 0.00 0.00 0.00 85 1015.8
20181118210534 34 104 0.0 1.0 0.00 0.00 0.00 85 1016.0
20181118205635 34 0 0.0 0.0 0.00 0.00 0.00 85 1016.1
20181118204735 34 0 0.0 0.0 0.00 0.00 0.00 85 1016.2
20181118203835 34 115 0.0 2.0 0.00 0.00 0.00 85 1016.2
20181118202934 34 115 0.0 0.0 0.00 0.00 0.00 85 1016.3
20181118202035 34 0 0.0 0.0 0.00 0.00 0.00 85 1016.4
20181118201134 34 0 0.0 0.0 0.00 0.00 0.00 84 1016.4
20181118200234 34 0 0.0 0.0 0.00 0.00 0.00 84 1016.4
20181118195334 34 115 0.0 2.0 0.00 0.00 0.00 83 1016.5
20181118194434 35 0 0.0 0.0 0.00 0.00 0.00 83 1016.5
20181118193534 35 0 0.0 0.0 0.00 0.00 0.00 83 1016.6
20181118192635 34 0 0.0 0.0 0.00 0.00 0.00 83 1016.6
20181118191734 34 0 0.0 0.0 0.00 0.00 0.00 83 1016.7
20181118190835 34 0 0.0 0.0 0.00 0.00 0.00 83 1016.7
20181118185934 34 0 0.0 0.0 0.00 0.00 0.00 83 1016.7
20181118185035 34 0 0.0 0.0 0.00 0.00 0.00 83 1016.7
20181118184134 34 0 0.0 0.0 0.00 0.00 0.00 82 1016.8
20181118183235 34 0 0.0 0.0 0.00 0.00 0.00 83 1016.9
20181118182335 34 0 0.0 0.0 0.00 0.00 0.00 83 1017.1
20181118181434 35 0 0.0 0.0 0.00 0.00 0.00 82 1017.3